contact:dominique.lefevre@mio.osupytheas.fr, maurice.libes@osupytheas.fr, didier.mallarino@osupytheas.fr
Project:EMSO http://www.emso-fr.org/EMSO-France
Depth: 2436.0 m
Title:EMSO Ligure Ouest : Data MII capteur OXYGEN
DateTime,Latitude,Longitude,Optode-Type,Optode_Serial,Oxygen,Saturation_Oxygen,Temperature
DateTime,Latitude,Longitude,Optode-Type,Optode_Serial,µmol.l-1,%,degC
2017-10-19T00:01:46,42.805,6.029,4330,1995,198.960,60.842,13.286
2017-10-19T00:04:46,42.805,6.029,4330,1995,198.917,60.829,13.286
2017-10-19T00:07:46,42.805,6.029,4330,1995,198.789,60.790,13.286
2017-10-19T00:10:46,42.805,6.029,4330,1995,198.816,60.799,13.286
2017-10-19T00:13:46,42.805,6.029,4330,1995,198.857,60.810,13.286
2017-10-19T00:16:46,42.805,6.029,4330,1995,198.876,60.816,13.286
2017-10-19T00:19:46,42.805,6.029,4330,1995,198.835,60.804,13.286
2017-10-19T00:22:46,42.805,6.029,4330,1995,198.842,60.806,13.286
2017-10-19T00:25:46,42.805,6.029,4330,1995,198.919,60.830,13.286
2017-10-19T00:28:46,42.805,6.029,4330,1995,198.822,60.800,13.286
2017-10-19T00:31:46,42.805,6.029,4330,1995,198.798,60.793,13.286
2017-10-19T00:34:46,42.805,6.029,4330,1995,198.865,60.813,13.286
2017-10-19T00:37:46,42.805,6.029,4330,1995,198.842,60.806,13.286
2017-10-19T00:40:46,42.805,6.029,4330,1995,198.857,60.810,13.286
2017-10-19T00:43:46,42.805,6.029,4330,1995,198.938,60.836,13.286
2017-10-19T00:46:46,42.805,6.029,4330,1995,198.774,60.785,13.286
2017-10-19T00:49:46,42.805,6.029,4330,1995,198.837,60.804,13.286
2017-10-19T00:52:46,42.805,6.029,4330,1995,198.822,60.799,13.286
2017-10-19T00:55:46,42.805,6.029,4330,1995,198.844,60.806,13.286
2017-10-19T00:58:46,42.805,6.029,4330,1995,198.920,60.829,13.286
2017-10-19T01:01:46,42.805,6.029,4330,1995,198.918,60.829,13.286
2017-10-19T01:04:46,42.805,6.029,4330,1995,198.836,60.804,13.286
2017-10-19T01:07:46,42.805,6.029,4330,1995,198.865,60.813,13.286
2017-10-19T01:10:46,42.805,6.029,4330,1995,198.926,60.831,13.286
2017-10-19T01:13:46,42.805,6.029,4330,1995,198.852,60.809,13.286
2017-10-19T01:16:46,42.805,6.029,4330,1995,198.790,60.790,13.286
2017-10-19T01:19:46,42.805,6.029,4330,1995,198.829,60.802,13.286
2017-10-19T01:22:46,42.805,6.029,4330,1995,198.830,60.802,13.286
2017-10-19T01:25:46,42.805,6.029,4330,1995,198.846,60.807,13.286
2017-10-19T01:28:46,42.805,6.029,4330,1995,198.881,60.818,13.286
2017-10-19T01:31:46,42.805,6.029,4330,1995,198.918,60.829,13.286
2017-10-19T01:34:46,42.805,6.029,4330,1995,198.879,60.817,13.286
2017-10-19T01:37:46,42.805,6.029,4330,1995,198.985,60.849,13.286
2017-10-19T01:40:46,42.805,6.029,4330,1995,198.852,60.809,13.286
2017-10-19T01:43:46,42.805,6.029,4330,1995,198.944,60.837,13.286
2017-10-19T01:46:46,42.805,6.029,4330,1995,198.976,60.847,13.286
2017-10-19T01:49:46,42.805,6.029,4330,1995,198.822,60.800,13.286
2017-10-19T01:52:46,42.805,6.029,4330,1995,198.857,60.810,13.286
2017-10-19T01:55:46,42.805,6.029,4330,1995,198.996,60.852,13.286
2017-10-19T01:58:46,42.805,6.029,4330,1995,199.060,60.873,13.286
2017-10-19T02:01:46,42.805,6.029,4330,1995,199.040,60.866,13.286
2017-10-19T02:04:46,42.805,6.029,4330,1995,199.040,60.866,13.286
2017-10-19T02:07:46,42.805,6.029,4330,1995,199.099,60.884,13.286
2017-10-19T02:10:46,42.805,6.029,4330,1995,199.108,60.887,13.286
2017-10-19T02:13:46,42.805,6.029,4330,1995,199.105,60.886,13.286
2017-10-19T02:16:46,42.805,6.029,4330,1995,199.174,60.907,13.286
2017-10-19T02:19:46,42.805,6.029,4330,1995,199.179,60.909,13.286
2017-10-19T02:22:46,42.805,6.029,4330,1995,199.216,60.920,13.285
2017-10-19T02:25:46,42.805,6.029,4330,1995,199.293,60.944,13.286
2017-10-19T02:28:46,42.805,6.029,4330,1995,199.345,60.959,13.286
2017-10-19T02:31:46,42.805,6.029,4330,1995,199.293,60.944,13.286
2017-10-19T02:34:46,42.805,6.029,4330,1995,199.397,60.976,13.286
2017-10-19T02:37:46,42.805,6.029,4330,1995,199.377,60.969,13.286
2017-10-19T02:40:46,42.805,6.029,4330,1995,199.438,60.988,13.286
2017-10-19T02:43:46,42.805,6.029,4330,1995,199.382,60.971,13.286
2017-10-19T02:46:46,42.805,6.029,4330,1995,199.535,61.017,13.285
2017-10-19T02:49:46,42.805,6.029,4330,1995,199.560,61.025,13.286
2017-10-19T02:52:46,42.805,6.029,4330,1995,199.347,60.960,13.286
2017-10-19T02:55:46,42.805,6.029,4330,1995,199.511,61.010,13.286
2017-10-19T02:58:46,42.805,6.029,4330,1995,199.372,60.968,13.286
2017-10-19T03:01:46,42.805,6.029,4330,1995,199.494,61.005,13.286
2017-10-19T03:04:46,42.805,6.029,4330,1995,199.363,60.965,13.286
2017-10-19T03:07:46,42.805,6.029,4330,1995,199.463,60.996,13.286
2017-10-19T03:10:46,42.805,6.029,4330,1995,199.592,61.034,13.285
2017-10-19T03:13:46,42.805,6.029,4330,1995,199.651,61.053,13.286
2017-10-19T03:16:46,42.805,6.029,4330,1995,199.546,61.021,13.286
2017-10-19T03:19:46,42.805,6.029,4330,1995,199.598,61.036,13.285
2017-10-19T03:22:46,42.805,6.029,4330,1995,199.671,61.059,13.286
2017-10-19T03:25:46,42.805,6.029,4330,1995,199.720,61.074,13.285
2017-10-19T03:28:46,42.805,6.029,4330,1995,199.805,61.100,13.286
2017-10-19T03:31:46,42.805,6.029,4330,1995,199.806,61.100,13.286
2017-10-19T03:34:46,42.805,6.029,4330,1995,199.796,61.097,13.285
2017-10-19T03:37:46,42.805,6.029,4330,1995,199.827,61.107,13.286
2017-10-19T03:40:46,42.805,6.029,4330,1995,199.837,61.109,13.285
2017-10-19T03:43:46,42.805,6.029,4330,1995,199.811,61.102,13.286
2017-10-19T03:46:46,42.805,6.029,4330,1995,199.880,61.123,13.286
2017-10-19T03:49:46,42.805,6.029,4330,1995,199.869,61.119,13.285
2017-10-19T03:52:46,42.805,6.029,4330,1995,199.853,61.114,13.285
2017-10-19T03:55:46,42.805,6.029,4330,1995,199.930,61.138,13.285
2017-10-19T03:58:46,42.805,6.029,4330,1995,200.044,61.173,13.285
2017-10-19T04:01:46,42.805,6.029,4330,1995,199.949,61.144,13.286
2017-10-19T04:04:46,42.805,6.029,4330,1995,199.884,61.124,13.285
2017-10-19T04:07:46,42.805,6.029,4330,1995,200.008,61.162,13.285
2017-10-19T04:10:46,42.805,6.029,4330,1995,199.887,61.125,13.286
2017-10-19T04:13:46,42.805,6.029,4330,1995,199.848,61.113,13.286
2017-10-19T04:16:46,42.805,6.029,4330,1995,199.912,61.133,13.286
2017-10-19T04:19:46,42.805,6.029,4330,1995,199.874,61.121,13.286
2017-10-19T04:22:46,42.805,6.029,4330,1995,199.889,61.126,13.286
2017-10-19T04:25:46,42.805,6.029,4330,1995,199.892,61.127,13.286
2017-10-19T04:28:46,42.805,6.029,4330,1995,199.918,61.134,13.285
2017-10-19T04:31:46,42.805,6.029,4330,1995,199.912,61.133,13.286
2017-10-19T04:34:46,42.805,6.029,4330,1995,199.932,61.138,13.285
2017-10-19T04:37:46,42.805,6.029,4330,1995,199.936,61.140,13.285
2017-10-19T04:40:46,42.805,6.029,4330,1995,199.934,61.139,13.285
2017-10-19T04:43:46,42.805,6.029,4330,1995,199.985,61.154,13.285
2017-10-19T04:46:46,42.805,6.029,4330,1995,199.998,61.158,13.285
2017-10-19T04:49:46,42.805,6.029,4330,1995,200.063,61.179,13.285
2017-10-19T04:52:46,42.805,6.029,4330,1995,200.022,61.166,13.285
2017-10-19T04:55:46,42.805,6.029,4330,1995,200.053,61.176,13.286
2017-10-19T04:58:46,42.805,6.029,4330,1995,199.986,61.155,13.286
2017-10-19T05:01:46,42.805,6.029,4330,1995,199.990,61.156,13.285
2017-10-19T05:04:46,42.805,6.029,4330,1995,200.129,61.199,13.285
2017-10-19T05:07:46,42.805,6.029,4330,1995,200.056,61.177,13.286
2017-10-19T05:10:46,42.805,6.029,4330,1995,200.015,61.164,13.285
2017-10-19T05:13:46,42.805,6.029,4330,1995,200.015,61.164,13.286
2017-10-19T05:16:46,42.805,6.029,4330,1995,200.022,61.166,13.285
2017-10-19T05:19:46,42.805,6.029,4330,1995,200.010,61.162,13.285
2017-10-19T05:22:46,42.805,6.029,4330,1995,199.968,61.149,13.285
2017-10-19T05:25:46,42.805,6.029,4330,1995,200.035,61.170,13.286
2017-10-19T05:28:46,42.805,6.029,4330,1995,200.070,61.180,13.285
2017-10-19T05:31:46,42.805,6.029,4330,1995,200.020,61.166,13.286
2017-10-19T05:34:46,42.805,6.029,4330,1995,200.020,61.165,13.285
2017-10-19T05:37:46,42.805,6.029,4330,1995,199.966,61.149,13.285
2017-10-19T05:40:46,42.805,6.029,4330,1995,199.998,61.159,13.285
2017-10-19T05:43:46,42.805,6.029,4330,1995,200.019,61.165,13.285
2017-10-19T05:46:46,42.805,6.029,4330,1995,200.097,61.189,13.285
2017-10-19T05:49:46,42.805,6.029,4330,1995,200.171,61.212,13.285
2017-10-19T05:52:46,42.805,6.029,4330,1995,200.151,61.206,13.285
2017-10-19T05:55:46,42.805,6.029,4330,1995,200.069,61.181,13.286
2017-10-19T05:58:46,42.805,6.029,4330,1995,200.116,61.195,13.285
2017-10-19T06:01:46,42.805,6.029,4330,1995,200.172,61.211,13.285
2017-10-19T06:04:46,42.805,6.029,4330,1995,200.086,61.186,13.286
2017-10-19T06:07:46,42.805,6.029,4330,1995,200.085,61.186,13.286
2017-10-19T06:10:46,42.805,6.029,4330,1995,200.121,61.197,13.286
2017-10-19T06:13:46,42.805,6.029,4330,1995,200.113,61.194,13.285
2017-10-19T06:16:46,42.805,6.029,4330,1995,200.095,61.188,13.285
2017-10-19T06:19:46,42.805,6.029,4330,1995,200.133,61.200,13.285
2017-10-19T06:22:46,42.805,6.029,4330,1995,200.072,61.182,13.286
2017-10-19T06:25:46,42.805,6.029,4330,1995,200.013,61.163,13.286
2017-10-19T06:28:46,42.805,6.029,4330,1995,200.061,61.178,13.286
2017-10-19T06:31:46,42.805,6.029,4330,1995,200.087,61.186,13.285
2017-10-19T06:34:46,42.805,6.029,4330,1995,200.084,61.185,13.285
2017-10-19T06:37:46,42.805,6.029,4330,1995,200.108,61.192,13.285
2017-10-19T06:40:46,42.805,6.029,4330,1995,200.128,61.198,13.285
2017-10-19T06:43:46,42.805,6.029,4330,1995,200.166,61.210,13.285
2017-10-19T06:46:46,42.805,6.029,4330,1995,200.080,61.184,13.286
2017-10-19T06:49:46,42.805,6.029,4330,1995,200.124,61.198,13.286
2017-10-19T06:52:46,42.805,6.029,4330,1995,200.129,61.198,13.285
2017-10-19T06:55:46,42.805,6.029,4330,1995,200.091,61.187,13.285
2017-10-19T06:58:46,42.805,6.029,4330,1995,200.102,61.190,13.285
2017-10-19T07:01:46,42.805,6.029,4330,1995,200.129,61.198,13.285
2017-10-19T07:04:46,42.805,6.029,4330,1995,200.177,61.213,13.285
2017-10-19T07:07:46,42.805,6.029,4330,1995,200.152,61.206,13.285
2017-10-19T07:10:46,42.805,6.029,4330,1995,200.211,61.223,13.285
2017-10-19T07:13:46,42.805,6.029,4330,1995,200.144,61.203,13.285
2017-10-19T07:16:46,42.805,6.029,4330,1995,200.160,61.208,13.285
2017-10-19T07:19:46,42.805,6.029,4330,1995,200.169,61.211,13.285
2017-10-19T07:22:46,42.805,6.029,4330,1995,200.170,61.211,13.285
2017-10-19T07:25:46,42.805,6.029,4330,1995,200.272,61.242,13.285
2017-10-19T07:28:46,42.805,6.029,4330,1995,200.233,61.230,13.285
2017-10-19T07:31:46,42.805,6.029,4330,1995,200.244,61.233,13.285
2017-10-19T07:34:46,42.805,6.029,4330,1995,200.195,61.219,13.285
2017-10-19T07:37:46,42.805,6.029,4330,1995,200.180,61.214,13.285
2017-10-19T07:40:46,42.805,6.029,4330,1995,200.164,61.209,13.285
2017-10-19T07:43:46,42.805,6.029,4330,1995,200.269,61.241,13.285
2017-10-19T07:46:46,42.805,6.029,4330,1995,200.215,61.225,13.285
2017-10-19T07:49:46,42.805,6.029,4330,1995,200.206,61.222,13.285
2017-10-19T07:52:46,42.805,6.029,4330,1995,200.243,61.233,13.285
2017-10-19T07:55:46,42.805,6.029,4330,1995,200.278,61.244,13.285
2017-10-19T07:58:46,42.805,6.029,4330,1995,200.193,61.219,13.286
2017-10-19T08:01:46,42.805,6.029,4330,1995,200.175,61.213,13.285
2017-10-19T08:04:46,42.805,6.029,4330,1995,200.107,61.192,13.286
2017-10-19T08:07:46,42.805,6.029,4330,1995,200.128,61.198,13.285
2017-10-19T08:10:46,42.805,6.029,4330,1995,200.192,61.218,13.285
2017-10-19T08:13:46,42.805,6.029,4330,1995,200.219,61.226,13.285
2017-10-19T08:16:46,42.805,6.029,4330,1995,200.214,61.224,13.285
2017-10-19T08:19:46,42.805,6.029,4330,1995,200.150,61.205,13.285
2017-10-19T08:22:46,42.805,6.029,4330,1995,200.158,61.207,13.285
2017-10-19T08:25:46,42.805,6.029,4330,1995,200.209,61.223,13.285
2017-10-19T08:28:46,42.805,6.029,4330,1995,200.234,61.231,13.285
2017-10-19T08:31:46,42.805,6.029,4330,1995,200.228,61.229,13.285
2017-10-19T08:34:46,42.805,6.029,4330,1995,200.228,61.228,13.285
2017-10-19T08:37:46,42.805,6.029,4330,1995,200.171,61.211,13.285
2017-10-19T08:40:46,42.805,6.029,4330,1995,200.143,61.203,13.285
2017-10-19T08:43:46,42.805,6.029,4330,1995,200.179,61.214,13.285
2017-10-19T08:46:46,42.805,6.029,4330,1995,200.153,61.206,13.285
2017-10-19T08:49:46,42.805,6.029,4330,1995,200.102,61.191,13.286
2017-10-19T08:52:46,42.805,6.029,4330,1995,200.139,61.202,13.285
2017-10-19T08:55:46,42.805,6.029,4330,1995,200.136,61.201,13.285
2017-10-19T08:58:46,42.805,6.029,4330,1995,200.184,61.215,13.285
2017-10-19T09:01:46,42.805,6.029,4330,1995,200.220,61.226,13.285
2017-10-19T09:04:46,42.805,6.029,4330,1995,200.195,61.219,13.285
2017-10-19T09:07:46,42.805,6.029,4330,1995,200.167,61.210,13.285
2017-10-19T09:10:46,42.805,6.029,4330,1995,200.210,61.223,13.285
2017-10-19T09:13:46,42.805,6.029,4330,1995,200.168,61.210,13.285
2017-10-19T09:16:46,42.805,6.029,4330,1995,200.172,61.212,13.285
2017-10-19T09:19:46,42.805,6.029,4330,1995,200.183,61.215,13.285
2017-10-19T09:22:46,42.805,6.029,4330,1995,200.176,61.213,13.285
2017-10-19T09:25:46,42.805,6.029,4330,1995,200.149,61.205,13.285
2017-10-19T09:28:46,42.805,6.029,4330,1995,200.085,61.185,13.285
2017-10-19T09:31:46,42.805,6.029,4330,1995,200.129,61.198,13.285
2017-10-19T09:34:46,42.805,6.029,4330,1995,200.124,61.197,13.285
2017-10-19T09:37:46,42.805,6.029,4330,1995,200.127,61.198,13.285
2017-10-19T09:40:46,42.805,6.029,4330,1995,200.085,61.185,13.285
2017-10-19T09:43:46,42.805,6.029,4330,1995,200.135,61.200,13.285
2017-10-19T09:46:46,42.805,6.029,4330,1995,200.122,61.197,13.286
2017-10-19T09:49:46,42.805,6.029,4330,1995,200.086,61.185,13.285
2017-10-19T09:52:46,42.805,6.029,4330,1995,200.096,61.188,13.285
2017-10-19T09:55:46,42.805,6.029,4330,1995,200.071,61.181,13.285
2017-10-19T09:58:46,42.805,6.029,4330,1995,200.109,61.192,13.285
2017-10-19T10:01:46,42.805,6.029,4330,1995,200.102,61.190,13.285
2017-10-19T10:04:46,42.805,6.029,4330,1995,200.069,61.180,13.285
2017-10-19T10:07:46,42.805,6.029,4330,1995,200.032,61.169,13.285
2017-10-19T10:10:46,42.805,6.029,4330,1995,200.018,61.165,13.285
2017-10-19T10:13:46,42.805,6.029,4330,1995,199.952,61.144,13.285
2017-10-19T10:16:46,42.805,6.029,4330,1995,199.974,61.151,13.285
2017-10-19T10:19:46,42.805,6.029,4330,1995,199.969,61.149,13.285
2017-10-19T10:22:46,42.805,6.029,4330,1995,199.997,61.158,13.285
2017-10-19T10:25:46,42.805,6.029,4330,1995,199.930,61.137,13.285
2017-10-19T10:28:46,42.805,6.029,4330,1995,199.964,61.148,13.285
2017-10-19T10:31:46,42.805,6.029,4330,1995,199.961,61.147,13.285
2017-10-19T10:34:46,42.805,6.029,4330,1995,199.828,61.107,13.285
2017-10-19T10:37:46,42.805,6.029,4330,1995,199.898,61.128,13.285
2017-10-19T10:40:46,42.805,6.029,4330,1995,199.827,61.106,13.285
2017-10-19T10:43:46,42.805,6.029,4330,1995,199.845,61.111,13.285
2017-10-19T10:46:46,42.805,6.029,4330,1995,199.805,61.100,13.285
2017-10-19T10:49:46,42.805,6.029,4330,1995,199.805,61.100,13.285
2017-10-19T10:52:46,42.805,6.029,4330,1995,199.775,61.090,13.285
2017-10-19T10:55:46,42.805,6.029,4330,1995,199.721,61.074,13.285
2017-10-19T10:58:45,42.805,6.029,4330,1995,199.685,61.063,13.285
2017-10-19T11:01:45,42.805,6.029,4330,1995,199.641,61.049,13.285
2017-10-19T11:04:45,42.805,6.029,4330,1995,199.649,61.052,13.285
2017-10-19T11:07:45,42.805,6.029,4330,1995,199.605,61.038,13.285
2017-10-19T11:10:45,42.805,6.029,4330,1995,199.618,61.042,13.285
2017-10-19T11:13:45,42.805,6.029,4330,1995,199.594,61.035,13.285
2017-10-19T11:16:45,42.805,6.029,4330,1995,199.634,61.047,13.285
2017-10-19T11:19:45,42.805,6.029,4330,1995,199.624,61.044,13.285
2017-10-19T11:22:45,42.805,6.029,4330,1995,199.524,61.014,13.285
2017-10-19T11:25:45,42.805,6.029,4330,1995,199.573,61.029,13.285
2017-10-19T11:28:45,42.805,6.029,4330,1995,199.454,60.993,13.286
2017-10-19T11:31:45,42.805,6.029,4330,1995,199.445,60.990,13.286
2017-10-19T11:34:45,42.805,6.029,4330,1995,199.389,60.972,13.285
2017-10-19T11:37:45,42.805,6.029,4330,1995,199.399,60.976,13.285
2017-10-19T11:40:45,42.805,6.029,4330,1995,199.424,60.983,13.285
2017-10-19T11:43:45,42.805,6.029,4330,1995,199.370,60.967,13.285
2017-10-19T11:46:45,42.805,6.029,4330,1995,199.341,60.958,13.286
2017-10-19T11:49:45,42.805,6.029,4330,1995,199.294,60.944,13.286
2017-10-19T11:52:45,42.805,6.029,4330,1995,199.235,60.925,13.286
2017-10-19T11:55:45,42.805,6.029,4330,1995,199.290,60.942,13.285
2017-10-19T11:58:45,42.805,6.029,4330,1995,199.251,60.930,13.285
2017-10-19T12:01:45,42.805,6.029,4330,1995,199.283,60.940,13.285
2017-10-19T12:04:45,42.805,6.029,4330,1995,199.252,60.931,13.286
2017-10-19T12:07:45,42.805,6.029,4330,1995,199.203,60.915,13.285
2017-10-19T12:10:45,42.805,6.029,4330,1995,199.268,60.935,13.285
2017-10-19T12:13:45,42.805,6.029,4330,1995,199.250,60.930,13.285
2017-10-19T12:16:45,42.805,6.029,4330,1995,199.309,60.948,13.285
2017-10-19T12:19:45,42.805,6.029,4330,1995,199.210,60.918,13.285
2017-10-19T12:22:45,42.805,6.029,4330,1995,199.263,60.934,13.285
2017-10-19T12:25:45,42.805,6.029,4330,1995,199.234,60.925,13.285
2017-10-19T12:28:45,42.805,6.029,4330,1995,199.205,60.916,13.285
2017-10-19T12:31:45,42.805,6.029,4330,1995,199.251,60.930,13.285
2017-10-19T12:34:45,42.805,6.029,4330,1995,199.263,60.934,13.285
2017-10-19T12:37:45,42.805,6.029,4330,1995,199.208,60.917,13.285
2017-10-19T12:40:45,42.805,6.029,4330,1995,199.200,60.915,13.286
2017-10-19T12:43:45,42.805,6.029,4330,1995,199.191,60.912,13.285
2017-10-19T12:46:45,42.805,6.029,4330,1995,199.174,60.907,13.286
2017-10-19T12:49:45,42.805,6.029,4330,1995,199.200,60.915,13.285
2017-10-19T12:52:45,42.805,6.029,4330,1995,199.184,60.910,13.286
2017-10-19T12:55:45,42.805,6.029,4330,1995,199.137,60.896,13.286
2017-10-19T12:58:45,42.805,6.029,4330,1995,199.110,60.887,13.286
2017-10-19T13:01:45,42.805,6.029,4330,1995,199.080,60.878,13.286
2017-10-19T13:04:45,42.805,6.029,4330,1995,199.080,60.878,13.286
2017-10-19T13:07:45,42.805,6.029,4330,1995,198.981,60.848,13.286
2017-10-19T13:10:45,42.805,6.029,4330,1995,198.913,60.827,13.286
2017-10-19T13:13:45,42.805,6.029,4330,1995,198.946,60.837,13.286
2017-10-19T13:16:45,42.805,6.029,4330,1995,199.076,60.877,13.286
2017-10-19T13:19:45,42.805,6.029,4330,1995,199.172,60.906,13.286
2017-10-19T13:22:45,42.805,6.029,4330,1995,199.129,60.893,13.286
2017-10-19T13:25:45,42.805,6.029,4330,1995,199.063,60.873,13.286
2017-10-19T13:28:45,42.805,6.029,4330,1995,199.014,60.858,13.286
2017-10-19T13:31:45,42.805,6.029,4330,1995,198.974,60.846,13.285
2017-10-19T13:34:45,42.805,6.029,4330,1995,199.028,60.862,13.286
2017-10-19T13:37:45,42.805,6.029,4330,1995,199.014,60.858,13.286
2017-10-19T13:40:45,42.805,6.029,4330,1995,198.975,60.846,13.286
2017-10-19T13:43:45,42.805,6.029,4330,1995,198.899,60.823,13.286
2017-10-19T13:46:45,42.805,6.029,4330,1995,198.989,60.851,13.286
2017-10-19T13:49:45,42.805,6.029,4330,1995,198.903,60.824,13.286
2017-10-19T13:52:45,42.805,6.029,4330,1995,198.845,60.807,13.286
2017-10-19T13:55:45,42.805,6.029,4330,1995,198.961,60.842,13.286
2017-10-19T13:58:45,42.805,6.029,4330,1995,199.042,60.867,13.286
2017-10-19T14:01:45,42.805,6.029,4330,1995,198.974,60.846,13.286
2017-10-19T14:04:45,42.805,6.029,4330,1995,198.956,60.841,13.286
2017-10-19T14:07:45,42.805,6.029,4330,1995,198.904,60.825,13.286
2017-10-19T14:10:45,42.805,6.029,4330,1995,198.881,60.818,13.286
2017-10-19T14:13:45,42.805,6.029,4330,1995,198.880,60.817,13.286
2017-10-19T14:16:45,42.805,6.029,4330,1995,198.896,60.823,13.286
2017-10-19T14:19:45,42.805,6.029,4330,1995,198.890,60.820,13.286
2017-10-19T14:22:45,42.805,6.029,4330,1995,198.966,60.844,13.286
2017-10-19T14:25:45,42.805,6.029,4330,1995,198.925,60.831,13.286
2017-10-19T14:28:45,42.805,6.029,4330,1995,199.005,60.856,13.286
2017-10-19T14:31:45,42.805,6.029,4330,1995,199.063,60.873,13.286
2017-10-19T14:34:45,42.805,6.029,4330,1995,199.041,60.866,13.286
2017-10-19T14:37:45,42.805,6.029,4330,1995,199.092,60.882,13.286
2017-10-19T14:40:45,42.805,6.029,4330,1995,199.053,60.870,13.286
2017-10-19T14:43:45,42.805,6.029,4330,1995,199.093,60.882,13.286
2017-10-19T14:46:45,42.805,6.029,4330,1995,199.096,60.883,13.286
2017-10-19T14:49:45,42.805,6.029,4330,1995,199.067,60.875,13.286
2017-10-19T14:52:45,42.805,6.029,4330,1995,199.046,60.868,13.286
2017-10-19T14:55:45,42.805,6.029,4330,1995,199.117,60.890,13.286
2017-10-19T14:58:45,42.805,6.029,4330,1995,199.133,60.894,13.286
2017-10-19T15:01:45,42.805,6.029,4330,1995,199.146,60.899,13.286
2017-10-19T15:04:45,42.805,6.029,4330,1995,199.129,60.894,13.286
2017-10-19T15:07:45,42.805,6.029,4330,1995,199.086,60.880,13.286
2017-10-19T15:10:45,42.805,6.029,4330,1995,199.155,60.902,13.286
2017-10-19T15:13:45,42.805,6.029,4330,1995,199.105,60.887,13.286
2017-10-19T15:16:45,42.805,6.029,4330,1995,199.028,60.863,13.286
2017-10-19T15:19:45,42.805,6.029,4330,1995,199.039,60.867,13.287
2017-10-19T15:22:45,42.805,6.029,4330,1995,198.999,60.854,13.286
2017-10-19T15:25:45,42.805,6.029,4330,1995,199.080,60.879,13.286
2017-10-19T15:28:45,42.805,6.029,4330,1995,199.165,60.904,13.286
2017-10-19T15:31:45,42.805,6.029,4330,1995,199.177,60.908,13.286
2017-10-19T15:34:45,42.805,6.029,4330,1995,199.113,60.890,13.286
2017-10-19T15:37:45,42.805,6.029,4330,1995,198.995,60.853,13.286
2017-10-19T15:40:45,42.805,6.029,4330,1995,199.038,60.868,13.288
2017-10-19T15:43:45,42.805,6.029,4330,1995,199.027,60.863,13.286
2017-10-19T15:46:45,42.805,6.029,4330,1995,199.099,60.885,13.286
2017-10-19T15:49:45,42.805,6.029,4330,1995,199.097,60.884,13.286
2017-10-19T15:52:45,42.805,6.029,4330,1995,199.075,60.877,13.286
2017-10-19T15:55:45,42.805,6.029,4330,1995,199.065,60.874,13.286
2017-10-19T15:58:45,42.805,6.029,4330,1995,199.069,60.876,13.287
2017-10-19T16:01:45,42.805,6.029,4330,1995,198.973,60.846,13.286
2017-10-19T16:04:45,42.805,6.029,4330,1995,199.002,60.856,13.287
2017-10-19T16:07:45,42.805,6.029,4330,1995,198.927,60.834,13.287
2017-10-19T16:10:45,42.805,6.029,4330,1995,198.816,60.800,13.288
2017-10-19T16:13:45,42.805,6.029,4330,1995,198.879,60.819,13.287
2017-10-19T16:16:45,42.805,6.029,4330,1995,198.828,60.803,13.287
2017-10-19T16:19:45,42.805,6.029,4330,1995,198.818,60.800,13.287
2017-10-19T16:22:45,42.805,6.029,4330,1995,198.900,60.825,13.287
2017-10-19T16:25:45,42.805,6.029,4330,1995,198.854,60.810,13.286
2017-10-19T16:28:45,42.805,6.029,4330,1995,198.772,60.786,13.287
2017-10-19T16:31:45,42.805,6.029,4330,1995,198.785,60.790,13.287
2017-10-19T16:34:45,42.805,6.029,4330,1995,198.842,60.807,13.287
2017-10-19T16:37:45,42.805,6.029,4330,1995,198.808,60.796,13.287
2017-10-19T16:40:45,42.805,6.029,4330,1995,198.779,60.787,13.286
2017-10-19T16:43:45,42.805,6.029,4330,1995,198.762,60.783,13.287
2017-10-19T16:46:45,42.805,6.029,4330,1995,198.700,60.763,13.286
2017-10-19T16:49:45,42.805,6.029,4330,1995,198.712,60.767,13.287
2017-10-19T16:52:45,42.805,6.029,4330,1995,198.653,60.749,13.287
2017-10-19T16:55:45,42.805,6.029,4330,1995,198.628,60.742,13.287
2017-10-19T16:58:45,42.805,6.029,4330,1995,198.710,60.766,13.286
2017-10-19T17:01:45,42.805,6.029,4330,1995,198.671,60.755,13.287
2017-10-19T17:04:45,42.805,6.029,4330,1995,198.725,60.772,13.287
2017-10-19T17:07:45,42.805,6.029,4330,1995,198.696,60.763,13.287
2017-10-19T17:10:45,42.805,6.029,4330,1995,198.612,60.737,13.287
2017-10-19T17:13:45,42.805,6.029,4330,1995,198.671,60.754,13.286
2017-10-19T17:16:45,42.805,6.029,4330,1995,198.630,60.742,13.286
2017-10-19T17:19:45,42.805,6.029,4330,1995,198.646,60.746,13.286
2017-10-19T17:22:45,42.805,6.029,4330,1995,198.632,60.742,13.286
2017-10-19T17:25:45,42.805,6.029,4330,1995,198.609,60.735,13.286
2017-10-19T17:28:45,42.805,6.029,4330,1995,198.559,60.720,13.286
2017-10-19T17:31:45,42.805,6.029,4330,1995,198.551,60.717,13.286
2017-10-19T17:34:45,42.805,6.029,4330,1995,198.512,60.705,13.286
2017-10-19T17:37:45,42.805,6.029,4330,1995,198.503,60.703,13.286
2017-10-19T17:40:45,42.805,6.029,4330,1995,198.439,60.683,13.286
2017-10-19T17:43:45,42.805,6.029,4330,1995,198.548,60.716,13.286
2017-10-19T17:46:45,42.805,6.029,4330,1995,198.460,60.689,13.286
2017-10-19T17:49:45,42.805,6.029,4330,1995,198.493,60.699,13.286
2017-10-19T17:52:45,42.805,6.029,4330,1995,198.406,60.673,13.286
2017-10-19T17:55:45,42.805,6.029,4330,1995,198.479,60.695,13.286
2017-10-19T17:58:45,42.805,6.029,4330,1995,198.370,60.662,13.286
2017-10-19T18:01:45,42.805,6.029,4330,1995,198.405,60.672,13.286
2017-10-19T18:04:45,42.805,6.029,4330,1995,198.406,60.673,13.286
2017-10-19T18:07:45,42.805,6.029,4330,1995,198.404,60.672,13.286